Volver al catálogo

QIANFAN-205

ActivoComunicacionesPO
NORAD 69804·PAYLOAD·🇨🇳 China

Lanzado Jul 4, 2026 desde Taiyuan Satellite Launch Center

Loading…

Próximos Pases (próximas 24 horas)

TLE

ActualizadoSource: Space-Track

Época: Sep 14, 2026, 12:26 UTC

1 69804U 26153E   26257.51864265 -.01823741  00000-0 -13077+1 0  9999
2 69804  88.9974 352.1396 0008166 348.8816  11.2182 14.01404206 10202

Sigue QIANFAN-205 en tiempo real con AllMySat

Download on the App Store